Вернуться в каталог

STARLINK-3615

АктивенСвязьVLEO
NORAD 51778·PAYLOAD·🇺🇸 United States

Запущен Feb 25, 2022 с Vandenberg Space Force Base

Loading…

Ближайшие Пролёты (ближайшие 24 часа)

TLE

СвежийSource: CelesTrak SupGP

Эпоха: Sep 14, 2026, 21:49 UTC

1 51778C 22017L   26257.90951389 -.00028338  00000+0 -83715-3 0  2575
2 51778  53.1604 189.5041 0001442  89.1903  45.7217 15.34408765    18

Отслеживайте STARLINK-3615 в реальном времени с AllMySat

Download on the App Store